When you browse on this site, cookies collect data to enhance your experience and personalize the content and advertising you see.
Visit our Privacy Policy to learn more. By continuing to use the site, you agree to this use of cookies and data.
  • In Schweiz
  • Länderverzeichnis
  • Für 7 Tage
  • Wassertemperatur
  • Wetterkarte
  • Widgets
  • user-avatar
    Anmelden

    Stündliche Wetter Cambridge

    Heute, 18 September, Mittwoch

    Zeit Temperatur Niederschläge Wind Luftdruck Luftfeuchtigkeit
    00:00 +10°C° 0 mm 1 m/S 770 mmHg 81%
    01:00 +9°C° 0 mm 1 m/S 770 mmHg 82%
    02:00 +9°C° 0 mm 1 m/S 769 mmHg 82%
    03:00 +9°C° 0 mm 1 m/S 769 mmHg 83%
    04:00 +9°C° 0 mm 1 m/S 770 mmHg 83%
    05:00 +9°C° 0 mm 1 m/S 770 mmHg 83%
    06:00 +9°C° 0 mm 1 m/S 770 mmHg 83%
    07:00 +11°C° 0 mm 1 m/S 770 mmHg 77%
    08:00 +12°C° 0 mm 1 m/S 771 mmHg 70%
    09:00 +14°C° 0 mm 2 m/S 771 mmHg 63%
    10:00 +15°C° 0 mm 2 m/S 771 mmHg 59%
    11:00 +16°C° 0 mm 2 m/S 771 mmHg 54%
    12:00 +17°C° 0 mm 2 m/S 770 mmHg 50%
    13:00 +18°C° 0 mm 2 m/S 770 mmHg 49%
    14:00 +18°C° 0 mm 2 m/S 770 mmHg 48%
    15:00 +18°C° 0 mm 2 m/S 770 mmHg 47%
    16:00 +18°C° 0 mm 1 m/S 770 mmHg 51%
    17:00 +16°C° 0 mm 1 m/S 770 mmHg 55%
    18:00 +15°C° 0 mm 1 m/S 770 mmHg 59%
    19:00 +14°C° 0 mm 1 m/S 770 mmHg 63%
    20:00 +14°C° 0 mm 1 m/S 771 mmHg 67%
    21:00 +13°C° 0 mm 2 m/S 771 mmHg 71%
    22:00 +13°C° 0 mm 2 m/S 771 mmHg 73%
    23:00 +12°C° 0 mm 2 m/S 771 mmHg 75%

    Morgen, 19 September, Donnerstag

    Zeit Temperatur Niederschläge Wind Luftdruck Luftfeuchtigkeit
    00:00 +12°C° 0 mm 2 m/S 771 mmHg 78%
    01:00 +12°C° 0 mm 2 m/S 771 mmHg 78%
    02:00 +12°C° 0 mm 1 m/S 771 mmHg 79%
    03:00 +11°C° 0 mm 1 m/S 771 mmHg 80%
    04:00 +11°C° 0 mm 1 m/S 771 mmHg 82%
    05:00 +11°C° 0 mm 1 m/S 771 mmHg 83%
    06:00 +11°C° 0 mm 1 m/S 771 mmHg 84%
    07:00 +12°C° 0 mm 0 m/S 771 mmHg 77%
    08:00 +14°C° 0 mm 0 m/S 771 mmHg 71%
    09:00 +16°C° 0 mm 0 m/S 772 mmHg 65%
    10:00 +17°C° 0 mm 0 m/S 771 mmHg 61%
    11:00 +20°C° 0 mm 1 m/S 771 mmHg 57%
    12:00 +20°C° 0 mm 2 m/S 771 mmHg 53%
    13:00 +21°C° 0 mm 2 m/S 771 mmHg 53%
    14:00 +21°C° 0 mm 2 m/S 771 mmHg 52%
    15:00 +21°C° 0 mm 2 m/S 770 mmHg 51%
    16:00 +20°C° 0 mm 2 m/S 770 mmHg 56%
    17:00 +19°C° 0 mm 2 m/S 770 mmHg 61%
    18:00 +17°C° 0 mm 2 m/S 770 mmHg 67%
    19:00 +16°C° 0 mm 2 m/S 770 mmHg 70%
    20:00 +15°C° 0 mm 2 m/S 770 mmHg 74%
    21:00 +14°C° 0 mm 2 m/S 770 mmHg 77%
    22:00 +14°C° 0 mm 2 m/S 770 mmHg 79%
    23:00 +13°C° 0 mm 2 m/S 770 mmHg 81%

    übermorgen, 20 September, Freitag

    Zeit Temperatur Niederschläge Wind Luftdruck Luftfeuchtigkeit
    00:00 +13°C° 0 mm 2 m/S 770 mmHg 83%
    01:00 +13°C° 0 mm 2 m/S 770 mmHg 85%
    02:00 +13°C° 0 mm 2 m/S 770 mmHg 87%
    03:00 +12°C° 0 mm 1 m/S 770 mmHg 89%
    04:00 +12°C° 0 mm 2 m/S 769 mmHg 90%
    05:00 +12°C° 0 mm 2 m/S 769 mmHg 91%
    06:00 +12°C° 0 mm 2 m/S 769 mmHg 92%
    07:00 +13°C° 0 mm 3 m/S 768 mmHg 85%
    08:00 +14°C° 0 mm 3 m/S 768 mmHg 78%
    09:00 +17°C° 0 mm 4 m/S 768 mmHg 71%
    10:00 +17°C° 0 mm 5 m/S 768 mmHg 65%
    11:00 +19°C° 0 mm 5 m/S 768 mmHg 59%
    12:00 +20°C° 0 mm 5 m/S 767 mmHg 53%
    13:00 +20°C° 0 mm 6 m/S 766 mmHg 52%
    14:00 +20°C° 0 mm 6 m/S 766 mmHg 50%
    15:00 +20°C° 0 mm 6 m/S 765 mmHg 49%
    16:00 +17°C° 0 mm 6 m/S 764 mmHg 54%
    17:00 +16°C° 0 mm 5 m/S 764 mmHg 60%
    18:00 +14°C° 0 mm 5 m/S 764 mmHg 65%
    19:00 +14°C° 0 mm 5 m/S 763 mmHg 67%
    20:00 +14°C° 0 mm 5 m/S 763 mmHg 69%
    21:00 +14°C° 0 mm 5 m/S 763 mmHg 72%
    22:00 +14°C° 0 mm 5 m/S 763 mmHg 71%
    23:00 +14°C° 0 mm 5 m/S 762 mmHg 70%

    21 September, Samstag

    Zeit Temperatur Niederschläge Wind Luftdruck Luftfeuchtigkeit
    00:00 +14°C° 0 mm 5 m/S 761 mmHg 69%
    01:00 +14°C° 0 mm 5 m/S 761 mmHg 68%
    02:00 +13°C° 0 mm 5 m/S 761 mmHg 68%
    03:00 +13°C° 0 mm 5 m/S 760 mmHg 67%
    04:00 +13°C° 0 mm 5 m/S 760 mmHg 68%
    05:00 +12°C° 0 mm 4 m/S 759 mmHg 69%
    06:00 +12°C° 0 mm 4 m/S 758 mmHg 70%
    07:00 +13°C° 0 mm 5 m/S 758 mmHg 65%
    08:00 +15°C° 0 mm 6 m/S 758 mmHg 61%
    09:00 +17°C° 0 mm 6 m/S 758 mmHg 56%
    10:00 +19°C° 0 mm 6 m/S 758 mmHg 53%
    11:00 +20°C° 0 mm 6 m/S 757 mmHg 51%
    12:00 +21°C° 0 mm 6 m/S 757 mmHg 48%
    13:00 +21°C° 0 mm 6 m/S 756 mmHg 49%
    14:00 +21°C° 0 mm 6 m/S 755 mmHg 50%
    15:00 +22°C° 0 mm 6 m/S 755 mmHg 50%
    16:00 +20°C° 0 mm 5 m/S 754 mmHg 54%
    17:00 +19°C° 0 mm 5 m/S 754 mmHg 58%
    18:00 +18°C° 0 mm 4 m/S 754 mmHg 62%
    19:00 +18°C° 0 mm 4 m/S 753 mmHg 66%
    20:00 +18°C° 0 mm 4 m/S 753 mmHg 70%
    21:00 +18°C° 0 mm 4 m/S 753 mmHg 73%
    22:00 +18°C° 0 mm 4 m/S 752 mmHg 76%
    23:00 +18°C° 0 mm 4 m/S 752 mmHg 78%

    22 September, Sonntag

    Zeit Temperatur Niederschläge Wind Luftdruck Luftfeuchtigkeit
    00:00 +19°C° 0 mm 4 m/S 752 mmHg 81%
    01:00 +19°C° 0 mm 4 m/S 751 mmHg 84%
    02:00 +19°C° 0 mm 4 m/S 751 mmHg 87%
    03:00 +18°C° 0 mm 4 m/S 751 mmHg 89%
    04:00 +18°C° 0.2 mm 4 m/S 751 mmHg 90%
    05:00 +18°C° 0.2 mm 4 m/S 751 mmHg 91%
    06:00 +18°C° 0.2 mm 4 m/S 750 mmHg 92%
    07:00 +19°C° 0.1 mm 4 m/S 751 mmHg 87%
    08:00 +20°C° 0.1 mm 4 m/S 751 mmHg 83%
    09:00 +20°C° 0.1 mm 4 m/S 751 mmHg 78%
    10:00 +19°C° 0.2 mm 4 m/S 751 mmHg 79%
    11:00 +17°C° 0.2 mm 5 m/S 751 mmHg 80%
    12:00 +17°C° 0.2 mm 5 m/S 752 mmHg 81%
    13:00 +19°C° 0 mm 5 m/S 752 mmHg 72%
    14:00 +21°C° 0 mm 6 m/S 752 mmHg 63%
    15:00 +22°C° 0 mm 6 m/S 752 mmHg 54%
    16:00 +21°C° 0 mm 6 m/S 752 mmHg 57%
    17:00 +20°C° 0 mm 5 m/S 752 mmHg 61%
    18:00 +18°C° 0 mm 4 m/S 752 mmHg 64%
    19:00 +17°C° 0 mm 4 m/S 753 mmHg 69%
    20:00 +15°C° 0 mm 4 m/S 753 mmHg 73%
    21:00 +14°C° 0 mm 3 m/S 753 mmHg 78%
    22:00 +14°C° 0 mm 3 m/S 754 mmHg 80%
    23:00 +13°C° 0 mm 4 m/S 754 mmHg 82%

    23 September, Montag

    Zeit Temperatur Niederschläge Wind Luftdruck Luftfeuchtigkeit
    00:00 +13°C° 0 mm 4 m/S 754 mmHg 85%
    01:00 +13°C° 0 mm 3 m/S 754 mmHg 87%
    02:00 +12°C° 0 mm 3 m/S 754 mmHg 89%
    03:00 +12°C° 0 mm 3 m/S 755 mmHg 91%
    04:00 +12°C° 0 mm 3 m/S 755 mmHg 92%
    05:00 +11°C° 0 mm 3 m/S 755 mmHg 93%
    06:00 +11°C° 0 mm 3 m/S 756 mmHg 94%
    07:00 +12°C° 0 mm 4 m/S 756 mmHg 85%
    08:00 +14°C° 0 mm 5 m/S 757 mmHg 75%
    09:00 +15°C° 0 mm 5 m/S 757 mmHg 66%
    10:00 +16°C° 0 mm 5 m/S 757 mmHg 62%
    11:00 +17°C° 0 mm 5 m/S 757 mmHg 57%
    12:00 +19°C° 0 mm 5 m/S 758 mmHg 53%
    13:00 +19°C° 0 mm 5 m/S 758 mmHg 52%
    14:00 +19°C° 0 mm 5 m/S 757 mmHg 52%
    15:00 +19°C° 0 mm 5 m/S 757 mmHg 51%
    16:00 +17°C° 0 mm 5 m/S 757 mmHg 58%
    17:00 +18°C° 0 mm 4 m/S 757 mmHg 64%
    18:00 +17°C° 0 mm 4 m/S 757 mmHg 71%
    19:00 +15°C° 0.1 mm 4 m/S 757 mmHg 75%
    20:00 +15°C° 0.1 mm 5 m/S 756 mmHg 79%
    21:00 +14°C° 0.1 mm 6 m/S 756 mmHg 83%
    22:00 +14°C° 0.3 mm 5 m/S 756 mmHg 86%
    23:00 +15°C° 0.3 mm 5 m/S 756 mmHg 88%
    Mehr zeigen